User: anonymous   Login
Location: Sungai Bunut
(2.6333°N, 113.7333°E)
Time: 01:10:55
(UTC+00:00)
Language:

deb Delta 139 - Orbit

View from above orbital plane
View from above orbital plane
View from above satellite
View from above satellite

Ground track
Ground track

The orbit data is extracted from the following two-line orbital elements,

1 12246U 78026CP  22226.55316590  .00000156  00000-0  12974-3 0  9994
2 12246  99.2492  81.7171 0054983 253.8319 135.2993 14.02727629121025
Epoch (UTC): 14 August 2022 13:16:33
Eccentricity: 0.0054983
inclination: 99.2492°
perigee height: 844 km
apogee height: 924 km
right ascension of ascending node: 81.7171°
argument of perigee: 253.8319°
revolutions per day: 14.02727629
mean anomaly at epoch: 135.2993°
orbit number at epoch: 12102

The dashed part of the orbit path shows where the satellite is in the earth's shadow,  

DLR